• In Belarus
  • List of Countries
  • For 7 days
  • Water Temperature
  • Satellite Maps
  • Weather Map
  • Weather Widgets
  • user-avatar
    Login

    Hourly Weather Kananga

    Today, 21 September, Friday

    Time Temperature Precipitation Wind Pressure Humidity
    00:00 +23°C° 0 mm 0 mps 704 mmHg 82%
    01:00 +22°C° 0 mm 0 mps 703 mmHg 82%
    02:00 +24°C° 0.3 mm 1 mps 703 mmHg 85%
    03:00 +24°C° 0.3 mm 1 mps 703 mmHg 87%
    04:00 +23°C° 0.3 mm 1 mps 703 mmHg 90%
    05:00 +24°C° 0.5 mm 1 mps 704 mmHg 90%
    06:00 +24°C° 0.5 mm 1 mps 704 mmHg 90%
    07:00 +25°C° 0 mm 1 mps 705 mmHg 91%
    08:00 +28°C° 0.3 mm 1 mps 705 mmHg 79%
    09:00 +31°C° 0.3 mm 1 mps 706 mmHg 67%
    10:00 +33°C° 0.3 mm 1 mps 706 mmHg 55%
    11:00 +34°C° 0 mm 1 mps 705 mmHg 52%
    12:00 +35°C° 0 mm 1 mps 705 mmHg 48%
    13:00 +35°C° 0 mm 1 mps 704 mmHg 44%
    14:00 +32°C° 0 mm 0 mps 704 mmHg 48%
    15:00 +32°C° 0 mm 0 mps 703 mmHg 52%
    16:00 +31°C° 0 mm 0 mps 703 mmHg 57%
    17:00 +29°C° 0 mm 0 mps 703 mmHg 60%
    18:00 +27°C° 0 mm 0 mps 703 mmHg 63%
    19:00 +25°C° 0 mm 0 mps 703 mmHg 66%
    20:00 +25°C° 0 mm 0 mps 703 mmHg 69%
    21:00 +24°C° 0 mm 0 mps 703 mmHg 72%
    22:00 +23°C° 0 mm 0 mps 703 mmHg 74%
    23:00 +25°C° 0.4 mm 1 mps 703 mmHg 78%

    Tomorrow, 22 September, Saturday

    Time Temperature Precipitation Wind Pressure Humidity
    00:00 +24°C° 0.4 mm 1 mps 703 mmHg 82%
    01:00 +23°C° 0.4 mm 1 mps 703 mmHg 85%
    02:00 +23°C° 0.2 mm 1 mps 703 mmHg 88%
    03:00 +23°C° 0.2 mm 1 mps 703 mmHg 90%
    04:00 +22°C° 0.2 mm 1 mps 703 mmHg 93%
    05:00 +24°C° 0 mm 1 mps 704 mmHg 90%
    06:00 +23°C° 0 mm 0 mps 704 mmHg 87%
    07:00 +24°C° 0 mm 0 mps 704 mmHg 84%
    08:00 +27°C° 0 mm 0 mps 705 mmHg 73%
    09:00 +30°C° 0 mm 0 mps 705 mmHg 62%
    10:00 +33°C° 0 mm 0 mps 706 mmHg 50%
    11:00 +34°C° 0 mm 0 mps 705 mmHg 46%
    12:00 +35°C° 0 mm 0 mps 704 mmHg 42%
    13:00 +36°C° 0 mm 0 mps 704 mmHg 38%
    14:00 +36°C° 0 mm 1 mps 703 mmHg 43%
    15:00 +34°C° 0 mm 1 mps 702 mmHg 49%
    16:00 +33°C° 0 mm 1 mps 702 mmHg 54%
    17:00 +31°C° 0 mm 1 mps 702 mmHg 58%
    18:00 +30°C° 0 mm 1 mps 702 mmHg 62%
    19:00 +28°C° 0 mm 1 mps 702 mmHg 67%
    20:00 +27°C° 0.2 mm 1 mps 703 mmHg 70%
    21:00 +27°C° 0.2 mm 1 mps 703 mmHg 74%
    22:00 +26°C° 0.2 mm 1 mps 704 mmHg 77%
    23:00 +25°C° 1.1 mm 1 mps 703 mmHg 83%

    Day after tomorrow, 23 September, Sunday

    Time Temperature Precipitation Wind Pressure Humidity
    00:00 +24°C° 1.1 mm 1 mps 703 mmHg 89%
    01:00 +23°C° 1.1 mm 1 mps 703 mmHg 95%
    02:00 +23°C° 0.1 mm 1 mps 703 mmHg 95%
    03:00 +23°C° 0.1 mm 1 mps 703 mmHg 95%
    04:00 +21°C° 0.1 mm 0 mps 702 mmHg 95%
    05:00 +22°C° 0 mm 0 mps 703 mmHg 93%
    06:00 +22°C° 0 mm 0 mps 704 mmHg 91%
    07:00 +23°C° 0 mm 0 mps 704 mmHg 89%
    08:00 +28°C° 0 mm 1 mps 705 mmHg 76%
    09:00 +31°C° 0 mm 1 mps 705 mmHg 63%
    10:00 +34°C° 0 mm 1 mps 706 mmHg 50%
    11:00 +35°C° 0 mm 1 mps 705 mmHg 47%
    12:00 +36°C° 0 mm 1 mps 704 mmHg 45%
    13:00 +37°C° 0 mm 1 mps 704 mmHg 42%
    14:00 +34°C° 0.1 mm 1 mps 703 mmHg 50%
    15:00 +32°C° 0.1 mm 1 mps 703 mmHg 59%
    16:00 +30°C° 0.1 mm 1 mps 702 mmHg 68%
    17:00 +28°C° 3.5 mm 1 mps 702 mmHg 74%
    18:00 +27°C° 3.5 mm 1 mps 702 mmHg 80%
    19:00 +25°C° 3.5 mm 1 mps 702 mmHg 86%
    20:00 +25°C° 2.1 mm 1 mps 703 mmHg 89%
    21:00 +24°C° 2.1 mm 1 mps 703 mmHg 93%
    22:00 +23°C° 2.1 mm 1 mps 704 mmHg 96%
    23:00 +23°C° 0.3 mm 1 mps 704 mmHg 96%

    24 September, Monday

    Time Temperature Precipitation Wind Pressure Humidity
    00:00 +23°C° 0.3 mm 1 mps 703 mmHg 97%
    01:00 +23°C° 0.3 mm 1 mps 703 mmHg 97%
    02:00 +23°C° 0.8 mm 1 mps 703 mmHg 97%
    03:00 +23°C° 0.8 mm 1 mps 703 mmHg 98%
    04:00 +22°C° 0.8 mm 1 mps 704 mmHg 98%
    05:00 +23°C° 1 mm 1 mps 704 mmHg 97%
    06:00 +23°C° 1 mm 1 mps 705 mmHg 96%
    07:00 +24°C° 1 mm 1 mps 706 mmHg 96%
    08:00 +25°C° 0.1 mm 2 mps 706 mmHg 90%
    09:00 +26°C° 0.1 mm 2 mps 706 mmHg 85%
    10:00 +27°C° 0.1 mm 2 mps 706 mmHg 80%
    11:00 +28°C° 0 mm 2 mps 705 mmHg 74%
    12:00 +29°C° 0 mm 2 mps 704 mmHg 69%
    13:00 +30°C° 0 mm 2 mps 704 mmHg 64%
    14:00 +30°C° 0 mm 2 mps 703 mmHg 66%
    15:00 +29°C° 0 mm 1 mps 703 mmHg 69%
    16:00 +29°C° 0 mm 1 mps 703 mmHg 71%
    17:00 +28°C° 0 mm 1 mps 703 mmHg 77%
    18:00 +26°C° 0 mm 1 mps 703 mmHg 82%
    19:00 +25°C° 0 mm 1 mps 704 mmHg 88%
    20:00 +24°C° 0.3 mm 1 mps 704 mmHg 89%
    21:00 +22°C° 0.3 mm 0 mps 704 mmHg 90%
    22:00 +22°C° 0.3 mm 0 mps 705 mmHg 91%
    23:00 +22°C° 0.1 mm 0 mps 704 mmHg 92%

    25 September, Tuesday

    Time Temperature Precipitation Wind Pressure Humidity
    00:00 +23°C° 0.1 mm 1 mps 704 mmHg 93%
    01:00 +23°C° 0.1 mm 1 mps 704 mmHg 93%
    02:00 +23°C° 0.1 mm 1 mps 704 mmHg 94%
    03:00 +23°C° 0.1 mm 1 mps 704 mmHg 94%
    04:00 +21°C° 0.1 mm 0 mps 704 mmHg 95%
    05:00 +23°C° 0.2 mm 1 mps 705 mmHg 95%
    06:00 +23°C° 0.2 mm 1 mps 705 mmHg 95%
    07:00 +23°C° 0.2 mm 1 mps 706 mmHg 95%
    08:00 +23°C° 0.1 mm 0 mps 706 mmHg 86%
    09:00 +26°C° 0.1 mm 0 mps 706 mmHg 77%
    10:00 +28°C° 0.1 mm 0 mps 706 mmHg 68%
    11:00 +29°C° 0 mm 0 mps 706 mmHg 62%
    12:00 +30°C° 0 mm 0 mps 705 mmHg 56%
    13:00 +32°C° 0 mm 0 mps 704 mmHg 50%
    14:00 +31°C° 0 mm 0 mps 704 mmHg 54%
    15:00 +32°C° 0 mm 1 mps 703 mmHg 58%
    16:00 +31°C° 0 mm 1 mps 703 mmHg 62%
    17:00 +29°C° 0.2 mm 1 mps 703 mmHg 68%
    18:00 +27°C° 0.2 mm 1 mps 703 mmHg 75%
    19:00 +23°C° 0.2 mm 0 mps 704 mmHg 82%
    20:00 +22°C° 1.3 mm 0 mps 704 mmHg 85%
    21:00 +22°C° 1.3 mm 0 mps 704 mmHg 89%
    22:00 +21°C° 1.3 mm 0 mps 704 mmHg 92%
    23:00 +21°C° 0 mm 0 mps 704 mmHg 93%

    26 September, Wednesday

    Time Temperature Precipitation Wind Pressure Humidity
    00:00 +21°C° 0 mm 0 mps 703 mmHg 94%
    01:00 +20°C° 0 mm 0 mps 703 mmHg 94%
    02:00 +20°C° 0 mm 0 mps 703 mmHg 95%
    03:00 +20°C° 0 mm 0 mps 703 mmHg 95%
    04:00 +20°C° 0 mm 0 mps 703 mmHg 96%
    05:00 +21°C° 0 mm 0 mps 704 mmHg 94%
    06:00 +22°C° 0 mm 0 mps 705 mmHg 91%
    07:00 +23°C° 0 mm 0 mps 706 mmHg 89%
    08:00 +26°C° 0 mm 0 mps 706 mmHg 78%
    09:00 +29°C° 0 mm 0 mps 706 mmHg 67%
    10:00 +32°C° 0 mm 0 mps 706 mmHg 56%
    11:00 +32°C° 0 mm 0 mps 705 mmHg 54%
    12:00 +32°C° 0 mm 0 mps 704 mmHg 51%
    13:00 +33°C° 0 mm 0 mps 703 mmHg 48%
    14:00 +33°C° 0.1 mm 1 mps 703 mmHg 54%
    15:00 +32°C° 0.1 mm 1 mps 703 mmHg 61%
    16:00 +31°C° 0.1 mm 1 mps 703 mmHg 67%
    17:00 +29°C° 0.9 mm 1 mps 703 mmHg 71%
    18:00 +28°C° 0.9 mm 1 mps 703 mmHg 76%
    19:00 +24°C° 0.9 mm 0 mps 703 mmHg 80%
    20:00 +23°C° 0.1 mm 0 mps 703 mmHg 83%
    21:00 +23°C° 0.1 mm 0 mps 703 mmHg 85%
    22:00 +22°C° 0.1 mm 0 mps 703 mmHg 87%
    23:00 +24°C° 0.2 mm 1 mps 703 mmHg 89%
    Show more